RH
42 43 44 45 50 54 58 63 68 69 69 69 70 70 70 72 73 74 74 73 73 74 78 79 73 70 72 73 71 68 64 62 68 74 75 69 58 51 50 51 50 49 46 46 49 55 59 62 62 61 59 57 56 58 62 64 64 64 65 68 71 73 73 72 72 72 75 77 80 86 95 96 97 97 92 83 69 58 55 53 44 42 52 54 37 21 23 27 26 26 34 43 45 36 34 63 82
38 39 39 40 41 43 47 50 53 57 59 62 62 62 64 64 64 63 62 61 62 64 68 71 72 74 72 68 63 61 60 60 68 76 73 66 61 55 54 54 50 45 42 44 50 59 64 67 68 67 64 63 64 67 69 69 68 69 73 77 81 83 82 80 80 82 85 88 93 97 99 98 93 83 69 53 40 35 32 29 26 30 36 31 22 21 25 26 25 28 36 39 35 33 33 49 64
36 37 37 36 37 38 39 41 44 48 51 54 55 57 59 60 61 61 58 57 56 57 63 69 77 79 70 62 55 52 52 53 56 59 56 52 50 47 44 42 36 35 41 50 60 66 69 69 68 68 67 69 72 74 74 74 75 77 81 87 90 92 91 89 88 90 93 95 99 100 97 88 72 52 37 27 22 21 19 18 19 21 22 21 23 24 24 23 24 27 31 32 31 34 39 46 52
32 33 34 33 33 33 34 35 37 40 44 45 44 47 51 53 55 54 52 52 52 54 56 58 62 64 63 59 52 49 50 53 53 47 43 42 43 44 40 35 33 38 46 56 66 70 70 68 66 65 66 70 73 76 76 76 79 83 89 93 95 97 96 94 93 96 99 99 99 97 85 63 39 24 18 15 15 15 14 15 17 21 24 26 24 21 20 22 24 27 30 34 39 42 49 55 55
27 27 29 29 29 29 29 30 31 32 36 37 36 38 41 43 44 44 43 44 45 46 46 46 48 51 56 54 49 51 55 60 57 48 46 48 51 51 47 46 48 51 56 62 66 66 67 67 66 63 63 67 71 74 77 80 85 90 94 96 97 98 98 97 98 100 101 99 93 79 54 30 17 14 14 13 13 12 14 18 25 31 30 25 20 19 21 27 31 34 38 42 44 46 54 58 58
20 22 23 24 25 26 26 26 26 27 28 29 30 31 32 33 34 35 35 36 37 38 38 40 42 44 46 46 46 49 51 51 48 46 53 58 59 57 58 62 63 62 60 59 58 60 63 65 63 62 64 70 75 79 83 88 91 94 96 96 96 97 99 100 101 101 98 87 67 42 21 13 13 14 13 12 13 15 21 28 34 34 27 22 21 23 28 36 42 45 47 44 41 45 54 58 63
17 18 19 20 21 22 23 23 23 23 24 24 25 25 25 26 27 27 28 29 30 31 32 33 35 37 39 40 42 42 42 42 41 44 49 51 52 55 64 69 68 63 57 54 55 58 62 62 63 66 71 78 82 85 89 94 96 98 99 97 99 102 103 101 99 90 74 52 29 16 12 13 13 13 12 13 17 22 29 32 32 29 25 24 25 28 33 40 44 49 47 42 43 51 59 65 73
18 18 18 19 19 20 21 21 22 21 21 21 21 21 21 21 21 22 22 23 24 25 26 28 29 31 33 33 34 35 37 38 39 40 39 38 40 48 57 60 59 57 55 56 57 59 61 64 66 70 75 81 86 92 97 100 100 98 95 95 96 95 89 81 69 51 33 20 13 12 12 12 11 12 12 16 22 28 31 30 29 28 27 28 30 32 34 36 39 43 40 43 52 61 68 76 87
18 19 20 20 21 21 22 22 22 21 21 20 20 20 19 19 19 19 19 19 19 20 21 22 24 25 26 26 27 28 29 31 34 35 33 32 35 40 43 43 45 49 52 54 55 56 60 65 68 70 73 79 87 92 92 89 84 78 74 71 65 58 49 39 28 19 15 13 12 12 11 11 12 13 15 20 25 30 31 31 31 30 31 33 34 34 32 31 34 37 40 53 62 66 76 89 101
18 19 19 21 23 24 25 24 23 22 22 21 21 20 19 19 18 18 18 17 17 17 17 18 19 19 20 20 21 22 25 28 31 31 28 29 30 31 32 33 35 39 43 46 49 52 56 59 58 59 62 66 69 68 65 59 53 47 42 36 30 25 21 17 15 14 12 12 11 12 12 13 14 16 19 23 28 32 34 34 34 35 38 39 37 33 30 32 38 42 52 63 64 71 88 100 99
19 19 19 20 21 24 26 26 25 25 25 25 23 21 20 19 18 18 17 17 16 16 15 16 15 15 16 16 16 18 21 23 25 25 24 24 23 24 25 26 27 29 32 35 38 40 41 41 41 43 45 46 45 42 38 32 28 25 22 19 18 16 15 14 13 12 12 12 13 13 14 16 18 21 24 29 34 36 38 38 38 40 43 41 36 33 36 43 48 51 60 64 66 81 96 96 82
17 18 19 19 21 23 25 25 26 26 27 27 25 23 21 20 19 18 17 17 16 16 15 14 14 14 14 14 14 15 17 18 19 19 19 19 19 20 21 20 21 22 24 25 25 25 26 26 27 29 30 30 27 25 22 20 19 17 17 16 15 14 13 13 12 13 14 14 15 17 18 20 23 27 32 35 38 40 42 43 42 43 41 37 36 44 51 54 56 58 62 65 75 90 96 86 71
12 14 15 17 18 21 23 25 25 25 27 26 25 24 23 22 22 20 19 19 18 17 16 15 14 14 14 15 15 15 15 15 15 16 16 16 17 17 17 17 18 18 19 18 18 18 18 19 21 22 21 21 20 19 18 18 17 15 15 13 13 13 13 14 15 15 14 17 19 21 22 26 32 35 39 41 42 44 44 45 44 41 37 40 49 60 60 59 63 62 64 71 83 94 92 80 70
11 11 11 12 13 15 17 20 21 23 24 24 24 22 23 23 23 22 21 21 20 19 18 17 17 16 17 17 17 16 16 15 15 15 15 15 15 15 16 16 16 16 15 15 16 16 17 17 18 19 18 18 17 16 15 15 14 13 13 13 14 15 16 15 15 17 20 23 24 28 34 40 43 44 44 43 44 44 44 45 41 39 44 55 62 61 61 67 68 61 66 79 90 96 88 74 74
12 11 11 11 11 12 13 14 15 17 19 21 21 20 21 21 20 20 20 21 21 20 20 20 20 20 20 19 19 18 18 18 17 16 16 15 15 15 15 15 15 14 14 14 14 14 15 16 16 16 15 15 14 14 14 14 14 15 15 16 17 16 17 19 23 29 32 36 43 50 51 49 47 46 44 41 41 40 41 37 36 48 58 64 57 52 67 78 74 65 72 88 94 91 76 67 82
13 13 13 13 13 13 13 12 12 13 14 15 16 17 18 18 19 19 18 19 19 20 20 21 21 22 22 21 21 20 20 20 20 18 17 16 16 16 16 16 15 14 14 14 14 15 15 15 15 15 14 14 15 15 15 15 16 16 17 18 21 27 32 37 45 49 54 64 66 59 50 46 43 41 39 36 37 38 40 37 49 69 66 61 49 47 73 86 76 69 78 92 91 78 62 66 90
15 15 15 15 15 15 14 12 11 11 12 12 12 13 14 14 15 16 17 17 19 19 19 21 21 22 23 23 22 22 22 21 21 20 19 19 18 18 18 17 16 16 16 16 17 17 17 17 15 15 16 16 16 18 17 18 17 17 24 33 43 53 58 63 70 74 80 79 63 49 44 43 40 37 37 38 42 50 57 59 72 82 69 59 50 49 74 83 69 66 80 89 88 75 58 72 99
16 16 16 17 18 18 16 13 12 11 12 12 11 11 11 12 12 13 14 15 16 16 17 19 20 21 23 23 23 23 23 22 22 21 21 21 20 21 20 19 19 18 18 19 18 18 17 17 16 17 17 18 19 19 18 17 18 29 46 63 74 75 75 82 87 87 85 70 55 52 50 45 39 36 40 48 56 63 70 75 83 83 70 57 51 58 71 69 58 63 75 75 79 74 61 82 108
18 17 18 20 21 19 17 15 13 13 13 13 12 11 11 11 11 11 12 12 13 14 15 18 19 20 21 22 21 22 22 22 22 22 22 22 22 22 21 21 20 20 20 19 19 19 18 17 18 19 19 20 20 17 19 21 26 52 77 85 88 84 84 88 86 86 83 72 66 62 54 46 41 42 51 61 67 66 65 68 70 66 61 54 56 65 61 54 53 58 64 60 60 60 67 97 109
19 19 21 24 23 19 18 17 16 15 14 14 14 13 13 13 13 13 14 14 14 16 17 19 19 19 21 20 19 19 20 21 22 23 23 23 23 22 22 22 21 21 20 20 20 19 19 20 20 19 21 19 19 21 23 29 41 70 94 95 92 88 86 87 86 94 93 83 77 67 59 56 57 62 65 67 64 60 58 58 58 57 59 59 61 61 51 51 54 53 54 52 53 61 84 107 104
20 21 26 29 24 22 22 20 19 18 18 18 17 16 16 16 16 16 16 17 18 20 21 22 23 22 21 19 18 18 19 22 23 23 23 23 23 22 22 21 21 21 20 20 20 20 21 19 20 20 20 20 22 26 28 46 77 95 101 103 101 92 85 87 94 99 93 83 80 74 71 72 76 76 68 63 60 60 64 66 66 66 66 62 58 54 52 56 56 50 47 50 65 77 93 105 102
21 25 32 33 29 28 28 25 23 21 22 22 21 19 18 18 18 19 19 20 22 23 24 24 25 24 21 19 20 21 21 22 23 23 24 23 22 22 21 21 21 20 20 21 19 20 21 19 21 20 19 23 23 25 27 42 74 88 95 108 107 95 87 92 98 97 89 83 84 82 80 82 82 78 71 68 66 69 74 71 67 63 61 56 52 53 56 57 50 42 43 59 78 85 94 105 106
25 31 40 41 36 35 32 29 27 26 26 26 25 22 21 21 21 21 21 22 24 24 24 24 25 23 21 22 22 22 22 22 22 22 22 21 21 20 20 21 19 20 20 19 22 19 19 20 18 19 20 19 18 20 19 24 49 73 93 107 103 92 89 97 102 99 93 87 87 85 80 79 78 77 76 75 73 71 68 62 58 54 52 50 49 53 53 48 41 38 46 63 75 85 99 106 106
29 39 49 50 42 39 36 32 30 29 29 29 28 26 24 23 22 22 23 24 25 25 24 24 23 22 22 23 22 22 22 21 22 21 21 20 19 20 27 38 40 48 45 27 23 22 19 21 18 21 22 23 30 23 19 41 74 94 101 103 97 91 92 99 102 101 97 88 83 80 76 75 73 73 75 75 71 64 58 55 51 47 45 45 45 47 44 40 37 38 47 58 69 87 100 104 105
34 43 53 56 49 44 40 34 33 33 32 32 30 30 28 26 25 25 26 26 26 25 25 24 22 22 22 22 21 20 20 19 20 19 19 18 17 26 44 69 84 89 81 43 20 23 20 19 21 26 33 48 58 44 48 80 99 101 101 100 96 95 99 101 101 99 93 84 79 76 73 72 70 71 73 71 65 56 54 52 45 41 40 40 41 42 41 39 39 42 50 61 78 94 100 104 106
39 46 52 58 59 53 47 39 37 36 35 34 32 32 31 29 28 27 28 27 27 26 25 24 22 23 22 21 20 19 19 17 19 17 18 17 19 47 62 70 96 108 100 59 21 20 20 20 20 23 39 58 62 60 80 101 100 100 101 99 99 101 102 101 101 99 92 84 81 76 73 75 73 70 69 69 62 52 49 46 41 38 37 36 38 39 39 42 47 53 63 75 91 99 101 105 105
45 51 55 61 62 58 53 45 41 39 37 36 33 34 31 30 29 28 28 26 27 25 24 24 22 23 21 21 20 18 19 16 19 15 16 14 10 59 87 76 101 111 87 54 29 24 18 18 20 21 40 58 70 85 96 99 100 101 100 100 101 100 101 102 101 101 96 92 92 86 79 77 72 64 66 70 62 49 45 42 39 37 35 36 36 38 45 54 62 67 74 82 91 98 103 102 98
50 55 57 59 59 56 53 47 44 41 38 37 35 34 32 31 30 29 29 26 27 24 23 23 22 23 21 21 20 18 20 16 19 16 27 45 33 54 80 79 102 99 58 36 37 39 29 24 19 20 39 52 75 102 101 96 100 100 99 101 101 100 101 100 100 102 98 96 99 91 76 69 64 63 68 69 60 49 43 38 34 31 34 38 38 44 55 66 73 74 75 77 84 96 103 101 97
52 54 54 55 54 52 50 46 44 41 38 37 34 34 32 31 31 29 29 26 26 25 24 24 22 23 21 21 20 18 20 16 18 17 28 62 76 79 80 74 71 59 48 50 56 56 53 51 30 23 43 54 76 100 99 97 100 99 99 99 101 101 99 99 103 101 94 92 93 82 67 65 69 72 73 68 61 52 43 36 28 27 36 42 42 49 62 74 79 77 76 78 85 93 101 103 92
50 50 49 49 48 46 45 43 40 38 35 34 32 31 30 30 30 28 27 25 25 25 24 24 23 23 21 21 21 19 20 17 17 18 16 29 58 80 90 92 71 60 77 87 88 79 67 54 30 39 71 80 92 103 99 100 101 99 98 100 102 101 99 102 99 90 92 94 87 76 68 72 80 81 78 73 64 53 44 35 27 31 39 42 45 54 67 79 82 78 78 81 86 95 99 88 60
45 43 42 41 40 38 37 37 36 33 32 30 28 28 28 27 27 26 24 23 23 23 23 23 22 21 21 20 20 19 18 19 16 16 17 15 23 33 48 64 66 82 101 95 97 96 78 49 24 58 98 99 101 102 99 101 101 100 99 101 102 99 101 101 92 85 93 91 74 69 72 79 86 84 81 75 61 49 42 33 31 37 40 42 47 58 70 77 80 78 77 82 92 95 78 50 29
40 38 36 35 33 31 30 31 30 29 28 27 25 25 25 24 24 23 21 21 21 21 21 20 21 19 20 19 18 19 17 18 18 15 17 16 15 13 15 21 31 74 106 98 97 98 96 77 54 80 105 100 101 100 101 102 100 101 101 101 100 99 99 97 92 84 84 81 69 69 76 86 93 89 82 71 56 45 38 34 37 37 34 40 49 59 71 77 82 82 81 90 93 74 44 26 25
36 34 32 30 28 27 25 25 24 24 23 22 22 21 22 21 21 20 19 19 19 19 19 18 19 18 18 19 17 18 17 16 17 16 16 15 14 13 13 12 16 60 103 106 101 99 101 97 85 96 103 99 101 99 100 101 100 101 100 101 101 101 100 98 97 88 81 77 73 79 84 86 85 80 73 64 52 42 37 36 37 33 30 39 51 60 73 80 85 88 91 92 72 40 28 29 30
33 30 28 26 25 23 22 21 20 20 19 18 19 18 18 18 18 18 17 18 18 17 18 17 17 17 17 18 17 18 17 17 16 15 16 15 15 13 13 14 14 50 97 106 101 103 104 99 93 99 101 98 101 100 100 100 100 100 100 101 100 101 102 100 100 98 93 82 77 85 87 75 65 64 64 57 48 41 40 39 35 35 37 41 50 57 67 78 83 87 85 68 41 28 34 36 32
29 27 25 23 22 21 20 19 17 17 17 16 16 16 17 19 18 16 15 15 16 16 17 17 15 16 16 17 18 18 17 17 18 18 17 16 16 15 14 16 12 35 81 100 100 103 104 103 97 96 101 100 99 100 100 100 100 100 101 101 100 100 101 102 99 96 95 89 84 86 83 71 65 70 70 59 49 44 43 43 41 44 46 47 51 52 54 60 62 60 51 37 30 34 39 40 38
28 24 22 21 20 20 20 19 17 16 16 15 16 15 18 24 21 16 15 15 16 18 18 17 16 16 17 18 18 20 20 20 20 20 20 19 20 18 14 17 14 22 57 84 97 103 101 104 102 96 100 101 100 101 100 101 101 100 101 101 100 100 101 102 98 94 95 95 92 89 85 79 80 84 78 64 57 54 51 49 50 53 55 55 53 50 46 42 39 34 28 29 35 37 40 46 45
26 23 21 21 19 20 23 22 19 16 16 16 16 16 20 26 23 17 17 16 18 21 21 19 18 18 19 21 21 23 23 22 24 24 23 21 20 20 17 17 16 19 46 76 94 103 102 102 103 99 100 101 101 101 100 101 100 100 101 100 100 100 101 101 100 100 99 96 90 86 87 88 91 93 87 78 70 63 57 51 49 51 54 53 48 45 45 39 32 27 25 31 36 37 44 52 51
24 22 20 20 21 24 27 25 21 18 18 19 18 19 23 27 25 21 18 18 21 25 25 24 22 23 24 24 25 26 26 25 26 27 26 24 22 22 21 19 19 18 37 71 93 102 103 102 103 100 100 101 101 100 100 102 102 100 101 100 100 101 100 101 104 106 100 92 82 79 87 92 97 99 95 89 79 67 59 51 46 45 44 45 43 41 45 44 35 30 32 37 40 43 53 58 56
22 21 19 22 26 28 28 28 24 20 20 22 21 22 25 28 27 24 21 21 24 25 26 26 25 26 27 27 27 27 27 25 26 27 25 25 24 24 23 21 23 21 26 55 87 103 103 101 103 101 100 101 101 101 100 101 101 100 101 101 100 101 101 100 104 106 102 98 91 87 94 98 100 102 99 94 85 72 63 57 52 47 43 44 46 42 44 49 44 40 43 44 46 51 59 63 61
22 20 21 27 30 29 31 29 24 20 21 23 23 23 25 27 27 25 24 23 24 24 24 25 25 28 28 28 28 27 27 25 25 26 25 25 25 25 26 23 25 26 24 36 66 97 105 101 101 100 100 103 101 100 100 100 101 100 100 101 100 100 100 100 100 102 101 103 104 102 100 100 101 102 102 99 91 79 69 64 62 57 52 50 49 46 45 49 50 49 50 50 53 57 60 64 65
21 23 27 32 32 31 32 29 22 20 22 24 23 23 25 26 25 25 24 23 23 23 23 23 25 28 28 28 28 27 27 26 26 27 26 26 26 26 27 27 28 29 29 27 40 79 104 101 100 102 99 101 100 100 100 100 100 100 100 101 101 100 100 100 100 100 100 102 105 106 101 101 102 101 102 102 97 89 77 74 74 68 66 63 59 56 51 50 51 52 53 54 56 57 57 64 70
24 29 32 34 32 31 31 27 22 21 23 24 22 23 25 24 24 24 24 22 22 23 22 23 25 28 29 28 28 27 26 26 26 27 27 27 27 27 27 29 32 32 33 29 29 66 104 103 98 101 101 100 100 100 100 100 100 100 100 101 101 100 99 100 100 100 101 102 103 104 102 102 103 101 100 100 99 94 87 85 81 76 77 77 72 70 65 60 57 55 56 56 57 59 62 69 76
30 34 34 33 32 31 30 26 22 21 22 22 22 24 25 25 24 24 23 22 22 23 23 23 25 28 29 29 28 27 26 26 26 25 27 28 28 28 29 30 35 37 38 36 31 53 91 104 101 100 99 101 101 100 100 100 101 100 100 101 101 100 99 100 100 100 102 103 104 104 100 94 94 94 92 93 94 94 93 89 82 77 77 77 76 75 72 67 63 60 59 60 63 69 72 77 82
37 36 33 34 33 30 28 25 22 21 21 21 23 23 24 25 25 23 22 23 22 22 23 23 25 28 29 30 29 28 28 27 26 25 25 27 27 28 30 29 33 40 42 42 38 39 55 80 99 103 101 100 100 101 101 100 100 101 101 101 100 99 99 100 100 102 103 100 97 98 95 85 83 85 83 83 85 87 87 82 75 72 70 71 73 73 70 68 69 69 68 70 73 77 80 84 87
39 36 34 34 32 28 27 24 22 21 21 22 23 23 24 24 24 22 22 23 23 22 23 23 25 28 29 30 30 29 29 28 26 25 23 25 26 27 31 31 33 41 47 46 44 41 40 50 71 89 97 101 101 100 99 100 100 101 101 100 100 100 99 101 101 102 104 100 92 89 87 80 75 75 73 73 77 80 79 74 69 68 69 73 77 76 74 75 79 84 86 86 84 85 86 87 90
39 36 35 33 31 29 27 25 23 22 22 23 24 23 24 24 23 23 23 22 23 23 23 24 25 27 27 28 28 27 27 27 24 23 24 25 28 28 30 35 37 44 52 52 48 47 46 43 47 58 68 81 97 104 101 100 101 101 101 100 100 100 101 102 101 100 99 97 92 86 81 75 72 73 72 73 76 76 72 68 65 67 74 82 88 89 90 92 94 96 97 94 89 86 86 88 93
39 36 34 32 31 29 27 26 24 23 23 24 24 23 24 24 24 23 23 23 23 23 24 24 25 26 26 26 26 26 25 26 25 24 26 28 31 33 33 36 39 45 54 58 55 52 50 49 48 48 48 53 71 94 103 100 101 101 101 100 100 100 101 101 100 98 97 96 93 91 87 84 83 82 80 79 78 74 71 72 75 80 89 95 99 99 99 97 94 89 87 84 80 80 84 92 96
39 35 33 32 31 29 27 26 24 23 24 24 23 24 24 24 24 25 24 23 23 24 24 23 24 25 26 26 26 27 26 26 26 26 29 33 36 37 37 37 38 44 53 59 59 58 54 52 51 49 51 48 49 75 99 101 100 101 99 100 101 100 101 101 101 100 101 101 98 98 98 97 96 94 93 93 90 88 89 92 95 98 100 98 96 93 88 81 74 71 69 68 69 74 86 97 99
37 34 33 31 30 29 27 26 24 23 24 24 22 23 24 24 25 26 24 23 23 25 24 24 25 26 26 27 26 26 26 26 27 28 31 35 38 39 38 39 40 42 52 60 60 59 56 54 53 50 52 51 48 72 100 101 98 101 100 100 100 100 101 100 101 102 102 102 101 100 100 100 101 101 101 101 100 100 101 100 101 101 97 90 84 79 75 69 65 64 62 61 65 75 90 102 102
34 32 31 30 30 29 27 26 24 23 23 23 22 23 24 24 26 25 24 23 23 24 26 25 25 26 26 26 26 25 25 25 27 31 34 36 36 39 40 39 41 43 48 56 59 58 56 54 54 52 52 51 49 63 89 100 100 100 100 101 101 102 103 102 103 104 103 102 101 102 101 100 101 101 101 101 100 100 100 99 101 99 93 86 79 73 70 67 65 64 64 65 69 79 95 104 105
31 30 31 33 32 30 27 25 23 23 23 21 22 22 23 26 26 25 24 23 23 24 25 25 25 26 24 22 22 22 24 26 28 30 33 36 37 39 40 39 40 43 45 49 54 54 54 53 52 52 51 52 49 48 62 82 94 97 97 97 95 95 99 102 102 101 102 103 101 102 103 102 101 101 101 101 100 100 99 98 98 94 89 84 77 72 69 66 65 66 69 71 75 86 98 103 104
30 31 34 36 33 29 26 24 23 22 21 21 21 22 26 27 24 24 25 24 25 24 24 26 25 23 24 31 37 33 26 24 27 32 33 35 37 36 36 37 38 40 42 43 46 48 49 50 49 48 47 47 48 46 46 55 68 76 78 78 75 76 83 89 91 94 100 102 101 102 104 104 102 101 101 101 101 102 100 99 98 93 89 85 79 74 71 69 68 69 72 76 81 89 97 100 101
33 34 38 37 33 29 26 24 22 22 21 20 21 23 27 26 24 26 26 25 25 24 27 26 24 33 48 67 84 82 66 44 27 28 34 31 32 33 32 34 35 37 38 38 40 42 44 44 43 44 44 42 42 42 41 41 45 51 53 53 52 53 64 79 90 98 103 103 103 104 104 103 101 101 101 102 102 102 101 101 99 95 91 88 84 80 77 76 73 73 76 82 87 91 94 98 100
37 38 39 37 33 29 26 23 21 21 21 20 21 24 26 25 26 27 26 29 27 25 28 22 30 66 88 91 96 100 101 89 52 29 31 31 29 31 31 32 32 33 34 35 36 37 38 40 40 38 38 38 38 37 38 37 36 38 42 47 53 61 74 89 99 104 107 107 106 104 102 102 100 100 101 101 101 101 101 102 101 99 98 95 91 88 86 84 81 80 83 88 94 98 98 98 99
40 38 38 37 34 29 26 23 21 22 20 21 23 23 25 26 26 29 28 28 25 28 39 38 48 89 106 92 88 89 98 110 87 47 30 31 32 32 33 32 31 32 33 34 36 36 35 35 34 34 34 32 31 30 30 31 37 50 63 71 81 92 99 104 105 106 108 107 104 102 102 102 100 100 100 101 101 102 103 103 102 102 102 101 99 99 97 94 92 91 92 95 97 98 98 98 98
41 40 41 41 35 30 27 23 22 23 21 23 24 24 28 27 26 31 27 29 44 60 77 84 84 100 105 94 93 96 97 107 103 71 38 30 34 35 35 35 33 34 35 34 34 33 33 32 32 31 28 29 35 40 38 34 40 64 88 100 104 107 108 108 106 102 98 99 101 102 103 103 101 100 100 100 100 102 105 106 106 105 104 104 103 104 104 103 102 100 98 98 96 96 96 96 96
41 42 45 44 36 31 28 24 23 23 21 24 24 25 31 30 30 30 25 47 84 94 97 101 99 101 103 99 98 100 102 103 101 86 54 32 31 34 33 34 35 34 33 33 32 31 31 31 30 30 34 52 72 82 81 71 64 74 90 100 103 106 108 107 103 97 96 99 102 101 102 103 103 100 100 101 100 102 105 106 104 102 100 101 103 104 105 106 104 99 95 92 88 86 85 84 85
40 42 45 44 38 32 28 25 24 23 23 25 25 29 33 33 34 28 29 69 106 104 100 102 99 101 103 100 98 97 101 100 98 100 81 48 38 44 44 44 44 43 41 39 35 34 31 32 42 55 70 89 98 98 101 100 95 95 97 95 97 103 108 105 101 101 101 101 100 99 101 102 101 100 100 100 98 98 99 99 98 96 94 93 94 94 94 92 88 83 78 74 71 69 69 69 70
Wind_Speed
80 79 78 77 76 75 74 74 73 73 74 75 78 79 79 79 78 77 75 72 70 68 68 70 70 69 68 67 66 64 64 63 63 64 65 65 65 65 65 66 65 65 66 66 67 67 68 69 70 71 71 71 71 71 72 73 74 74 75 76 77 77 78 78 79 79 80 81 82 83 84 84 85 86 86 86 84 83 82 80 80 79 77 76 76 75 71 69 68 68 66 63 62 63 63 60 60
80 79 78 77 76 75 74 74 72 73 74 76 79 79 79 79 79 78 75 72 70 69 71 71 71 71 70 69 68 67 66 65 65 66 67 67 67 67 67 68 68 68 68 68 69 70 70 71 72 73 73 73 73 73 74 75 75 76 76 77 78 79 79 79 80 80 81 82 83 83 84 85 87 87 86 84 82 81 80 79 78 77 76 75 74 71 68 67 67 66 64 63 64 63 61 60 61
79 79 78 77 75 75 73 72 71 72 74 77 79 79 80 79 79 78 75 72 70 70 72 71 71 72 72 71 70 69 69 68 68 69 69 69 70 70 70 71 71 71 71 70 71 71 72 73 74 74 74 74 75 75 76 76 76 77 77 78 79 80 80 80 80 81 82 82 83 84 86 87 87 85 83 82 80 79 78 77 76 75 75 72 70 67 65 66 66 65 64 64 62 61 60 60 59
79 78 77 76 75 74 72 72 71 72 75 79 79 79 79 79 79 78 75 72 71 72 72 72 72 73 73 73 72 71 72 72 72 71 71 72 72 72 73 73 73 72 72 72 73 73 74 75 75 75 75 76 76 76 77 77 77 78 78 79 80 81 81 81 81 82 82 83 84 86 87 86 84 82 81 79 78 77 76 75 74 73 70 68 66 65 65 65 65 64 63 61 59 58 58 58 57
79 78 77 76 75 73 72 71 71 74 78 80 79 79 79 79 79 78 74 72 72 72 72 72 73 73 74 73 72 72 73 74 74 74 74 74 74 75 75 75 73 73 73 74 75 75 76 76 76 76 76 77 77 78 78 78 78 79 79 80 81 81 81 82 82 83 83 85 86 87 85 82 81 79 78 77 76 75 74 72 71 69 67 67 66 65 64 63 63 61 60 58 57 56 56 56 55
77 77 77 76 75 74 72 71 72 76 79 80 80 79 79 79 79 78 74 72 72 72 73 73 73 74 74 74 73 74 74 75 75 76 76 76 76 77 77 76 75 75 76 76 77 77 77 77 77 77 77 77 78 78 78 78 79 80 81 81 81 82 82 82 83 84 85 86 85 83 81 79 78 76 75 75 74 73 71 69 67 67 67 67 66 64 62 61 60 59 58 57 56 56 55 53 51
76 76 76 76 75 75 73 72 74 78 80 80 80 79 79 79 79 77 74 72 72 72 73 73 73 74 74 74 74 75 76 76 76 77 78 78 78 78 78 78 78 78 78 78 78 78 78 78 78 78 78 78 78 78 79 79 80 81 82 82 82 82 83 84 84 85 85 83 81 80 78 77 76 74 73 72 71 70 69 67 66 66 67 66 65 63 61 60 59 58 57 56 55 53 51 49 47
77 76 76 75 75 74 74 74 76 79 80 81 81 80 79 79 79 77 75 72 71 72 73 73 73 74 74 74 75 76 76 77 78 79 79 79 79 79 79 79 79 79 79 79 79 79 79 79 78 78 78 79 79 79 79 80 81 82 83 83 83 83 83 83 83 82 81 80 79 77 76 75 74 73 71 70 69 68 68 67 65 65 65 64 63 62 60 59 58 57 56 54 52 49 46 44 43
79 78 77 76 75 74 75 76 79 80 80 81 81 79 79 79 79 78 75 72 71 72 73 73 73 74 74 74 75 76 77 78 80 81 81 79 79 79 80 80 79 79 80 80 79 79 79 79 79 79 79 79 80 80 81 82 82 82 82 81 81 80 80 79 79 79 78 77 76 75 74 73 72 71 70 68 67 67 66 65 65 64 63 63 62 61 59 58 57 56 54 50 48 45 42 40 40
81 81 79 78 77 76 77 79 81 80 80 82 81 80 79 79 80 79 76 73 72 72 73 74 73 73 74 74 74 76 77 79 81 82 81 80 80 80 80 80 79 79 79 79 79 79 79 79 79 79 79 79 80 80 80 80 80 79 78 78 77 77 77 77 77 77 76 75 74 73 72 72 71 70 68 66 65 65 64 64 63 62 61 61 60 60 59 56 54 52 48 46 44 42 38 38 40
83 83 82 81 79 79 81 82 82 81 82 83 83 81 80 80 81 80 77 74 73 73 73 74 73 73 73 73 74 76 77 79 81 81 81 81 80 79 79 79 79 78 78 78 77 77 77 77 77 77 77 77 77 77 76 76 76 76 75 75 75 75 75 75 74 74 73 73 73 72 72 71 69 67 65 64 63 63 63 62 61 60 60 60 59 59 56 52 50 46 43 43 42 38 36 37 40
83 83 83 82 82 83 84 85 85 84 84 85 84 83 82 81 81 81 78 75 74 74 74 74 73 72 72 73 74 76 78 79 80 80 81 80 79 79 79 78 78 77 77 76 76 75 75 75 75 75 75 75 74 74 74 74 74 74 74 74 73 73 72 72 72 72 72 72 71 70 70 68 66 64 63 62 61 61 60 59 59 59 59 59 57 53 50 49 46 42 41 42 40 36 34 36 39
80 81 81 82 83 84 87 89 88 87 87 88 86 84 83 82 82 81 77 75 74 75 75 74 72 72 71 73 75 76 78 78 79 80 80 78 77 78 78 78 77 77 76 75 75 74 74 74 74 74 74 73 73 73 73 73 73 73 72 72 71 71 70 70 71 71 71 70 69 67 66 64 63 62 61 60 59 58 58 58 59 58 57 55 51 49 49 48 44 41 41 41 38 35 34 36 38
78 78 79 80 81 83 87 90 90 89 89 90 88 87 85 84 83 81 78 76 76 76 75 74 73 72 72 73 75 77 78 78 79 79 78 76 76 77 78 77 77 76 76 75 74 73 73 73 73 73 73 72 72 72 72 72 72 71 71 70 70 69 69 69 69 69 68 66 65 63 62 60 59 58 57 57 57 57 57 58 58 56 53 49 47 49 50 47 43 42 42 40 36 34 34 35 36
76 75 76 77 80 83 87 88 88 87 89 90 90 89 88 86 85 83 80 78 77 77 76 76 75 74 74 75 77 78 78 79 79 79 77 75 76 77 77 77 76 75 75 74 73 73 72 72 72 71 71 71 71 71 71 71 71 70 69 69 68 68 67 66 65 64 63 61 60 58 56 55 55 55 55 56 56 56 57 57 55 52 48 46 48 49 49 47 44 43 41 37 34 33 34 34 34
75 74 74 75 78 82 86 87 86 85 87 88 89 89 88 87 86 84 83 80 79 79 78 78 77 76 77 78 79 79 79 79 80 80 78 76 76 76 77 76 76 75 74 73 72 72 71 70 70 70 70 70 70 71 71 70 69 68 67 67 65 63 62 61 60 58 57 55 54 52 52 53 53 54 54 54 54 54 54 52 49 47 46 46 49 49 47 46 45 44 40 36 33 33 34 34 33
74 73 73 75 78 82 85 86 85 84 85 86 87 86 86 85 83 83 82 81 80 80 79 79 79 79 79 80 81 81 81 81 81 80 79 77 77 77 78 77 76 75 74 73 72 71 70 70 70 70 70 70 70 70 69 68 67 66 64 61 58 56 55 55 54 53 52 51 50 50 51 52 52 52 52 52 51 50 49 46 46 46 47 49 50 49 46 45 45 44 39 36 35 35 35 33 32
74 73 73 74 78 81 83 83 83 83 83 84 84 83 82 80 78 78 78 78 79 78 78 79 80 80 80 81 81 81 82 82 81 80 79 78 77 78 78 77 76 75 74 73 72 71 71 71 71 70 70 69 69 68 67 66 64 61 57 54 51 50 49 49 48 49 49 48 49 51 52 52 53 52 51 50 48 47 46 45 45 47 49 51 51 48 46 46 45 43 40 38 38 37 34 31 31
73 73 72 74 78 80 81 81 80 80 81 82 82 81 79 77 75 74 74 75 75 74 75 76 78 79 80 81 81 81 82 82 81 79 78 78 78 78 77 76 75 75 74 74 73 73 72 72 70 70 69 68 68 67 65 63 59 55 50 48 46 45 45 46 47 48 48 48 51 52 52 52 51 50 49 48 47 46 46 47 48 49 50 50 48 46 45 45 44 42 41 40 38 35 31 28 30
73 71 70 74 78 79 79 78 77 78 79 79 79 78 76 74 72 71 71 71 70 70 71 72 74 75 76 79 79 79 80 79 79 78 77 77 77 77 76 76 75 75 74 73 73 72 71 70 70 69 68 68 66 64 60 57 55 51 46 43 43 43 44 46 47 47 47 49 51 50 49 48 47 47 46 46 47 47 47 47 47 47 47 46 45 45 45 44 43 42 40 39 36 31 26 26 29
71 69 69 74 77 76 76 75 74 75 75 75 76 75 73 70 69 68 68 67 67 66 67 68 69 70 73 75 75 74 75 74 74 74 74 75 75 75 74 74 73 73 73 72 71 70 70 69 68 67 65 63 60 57 54 51 49 47 45 43 42 43 45 46 46 46 47 48 47 45 44 44 44 44 44 45 45 44 44 43 43 43 44 44 44 44 43 43 41 39 37 34 30 27 24 24 27
68 66 69 73 73 73 74 72 72 73 72 73 74 73 70 68 66 66 64 63 64 64 65 65 65 68 69 69 68 69 68 68 69 69 70 71 71 71 70 71 72 72 71 70 69 68 67 65 63 62 59 57 55 52 50 49 47 47 46 43 40 42 45 46 46 45 45 43 42 41 41 42 42 42 43 43 42 41 41 41 41 41 42 42 42 42 41 40 38 35 32 28 25 24 22 22 23
66 65 68 71 71 72 72 70 70 71 70 71 71 70 68 65 63 63 62 61 62 63 63 63 64 66 64 63 64 64 64 64 64 65 66 66 66 65 65 68 70 69 68 67 66 64 62 60 59 57 55 53 52 51 49 48 46 45 42 39 39 43 45 45 44 42 41 40 40 40 40 40 40 40 40 40 39 39 40 40 40 41 41 41 39 39 38 37 34 30 26 23 22 21 20 20 21
64 65 68 70 71 71 71 69 69 69 68 69 69 68 66 63 61 60 60 60 62 63 63 63 64 63 61 62 63 62 62 61 61 62 62 61 59 57 56 60 64 62 61 61 60 59 58 56 54 52 51 50 49 47 46 43 39 39 39 39 41 43 43 43 42 42 41 41 42 41 41 40 40 39 37 37 37 38 38 38 38 39 39 38 38 37 36 32 29 26 23 22 21 19 18 19 20
63 65 68 70 70 71 70 68 68 68 67 68 66 65 64 61 59 59 60 61 62 63 64 64 63 61 61 63 63 62 61 60 60 60 59 56 50 46 48 52 55 57 57 57 57 56 55 53 52 51 48 46 46 44 39 36 35 36 37 38 39 40 41 43 44 44 44 44 43 42 41 41 40 38 37 37 36 36 35 36 36 37 37 37 37 35 32 29 27 25 23 22 19 18 18 19 20
63 65 66 68 70 71 70 68 68 67 67 67 65 64 64 61 59 60 61 62 63 64 65 64 61 61 63 64 64 62 61 60 58 58 55 51 42 38 46 49 49 55 60 58 56 54 54 52 50 48 46 45 46 41 33 32 34 33 33 35 38 40 42 44 44 44 44 43 42 42 42 41 39 37 37 36 35 34 34 35 36 37 38 38 37 33 29 27 26 25 23 21 19 18 19 20 21
61 63 64 66 69 70 70 69 69 69 67 67 65 65 65 63 62 62 63 64 66 67 66 63 62 63 65 65 65 63 62 59 58 57 52 48 41 36 45 48 46 54 61 60 56 54 54 51 47 43 42 42 40 37 35 35 36 34 34 36 38 40 42 42 42 42 42 42 42 42 41 39 38 38 37 36 35 34 35 37 38 40 41 40 36 31 28 26 25 24 22 20 19 19 20 22 26
59 61 62 65 67 69 70 70 71 70 68 67 67 67 67 64 64 65 66 67 68 67 66 64 64 66 67 66 66 64 62 59 57 54 47 44 41 39 47 49 47 52 59 60 56 53 50 47 45 41 40 40 36 32 33 35 36 35 35 36 37 38 39 39 40 40 40 40 41 40 39 38 38 38 37 36 36 36 37 39 41 43 43 39 34 29 27 26 25 24 23 22 21 21 23 27 31
59 60 61 64 66 67 69 71 71 71 69 69 69 67 67 66 67 69 70 69 68 67 66 66 66 68 68 67 66 65 62 60 58 53 45 42 40 42 50 54 53 54 54 54 53 50 46 43 41 38 39 40 36 31 29 29 30 32 36 37 38 38 38 38 39 40 40 39 38 38 37 37 38 37 37 37 36 37 39 41 43 44 41 36 31 28 26 26 26 26 25 24 24 24 28 33 38
59 60 60 64 65 66 70 72 72 71 70 71 69 66 68 69 71 73 71 69 68 68 68 68 68 70 70 68 66 65 63 61 60 57 53 52 51 51 53 52 51 50 43 39 42 44 42 40 38 37 38 37 35 34 34 32 32 36 40 40 39 38 39 39 39 40 39 36 35 36 37 37 37 37 37 36 36 38 39 41 42 40 36 33 31 28 26 27 27 27 27 27 27 29 33 37 38
59 59 60 63 65 67 72 72 71 71 70 71 68 66 68 70 73 75 71 69 69 69 70 69 70 71 70 68 66 65 64 63 63 62 60 59 60 60 59 56 52 47 37 29 31 37 39 38 37 36 35 33 34 36 38 39 40 41 41 40 39 37 36 35 36 37 35 34 35 36 37 37 37 37 36 35 37 38 39 39 37 33 31 31 31 28 27 27 27 28 28 29 31 34 35 33 29
59 59 60 62 64 68 72 71 70 71 71 71 68 65 68 70 74 75 70 67 68 70 71 71 71 72 70 67 65 64 64 65 65 63 62 62 62 62 61 59 55 51 44 36 34 35 37 37 36 35 34 33 36 38 40 42 41 40 40 41 40 37 36 35 36 37 37 37 37 36 35 36 36 36 36 37 37 37 37 35 30 29 31 32 32 29 28 29 29 29 29 30 33 33 28 25 26
59 59 60 61 63 67 70 70 70 71 70 70 66 64 67 70 74 75 69 66 68 69 70 71 71 70 68 65 63 63 64 65 64 63 62 61 61 60 59 56 55 53 50 46 43 39 37 36 36 36 34 35 38 39 40 40 40 41 42 43 43 41 40 39 37 38 39 39 38 35 34 34 36 37 38 38 37 36 35 31 28 29 31 32 32 32 30 31 31 31 32 33 31 25 23 26 31
59 58 59 60 61 65 68 69 69 69 68 67 64 62 64 68 72 73 68 65 67 69 70 70 70 68 65 62 60 61 64 64 63 61 59 59 59 57 56 53 53 53 50 48 48 47 43 39 39 40 38 37 39 41 42 42 43 44 44 44 44 43 41 40 40 39 38 38 38 36 36 37 38 39 39 37 36 35 32 29 29 29 29 30 31 32 32 34 34 34 34 30 21 19 25 31 34
59 57 57 58 59 62 66 68 68 65 64 63 60 59 59 63 67 69 65 62 65 67 67 68 67 64 61 60 59 60 62 61 59 57 55 56 56 54 54 52 51 53 53 52 51 51 49 43 41 44 44 42 42 44 45 46 45 44 44 43 43 43 42 42 43 41 40 40 40 39 40 40 39 38 37 35 34 34 31 29 28 27 28 28 30 31 32 33 33 31 27 20 16 21 28 32 35
59 57 56 57 58 59 63 65 64 61 60 59 59 57 55 58 63 64 62 59 60 62 64 64 61 59 57 57 57 58 58 56 54 53 52 53 53 52 52 52 51 52 55 55 53 52 51 47 44 46 48 47 46 47 48 47 46 46 45 43 43 43 44 44 45 44 43 44 42 42 41 40 39 36 34 33 31 29 28 27 26 26 26 26 27 29 29 28 25 22 17 15 20 25 28 33 35
59 57 55 56 56 56 59 62 61 59 56 56 58 56 53 56 60 61 59 57 56 57 58 57 55 53 53 53 54 54 54 53 51 50 51 51 51 50 50 50 50 51 54 56 56 54 53 51 47 46 47 47 48 51 52 52 50 49 47 44 43 43 44 45 46 46 47 47 45 44 42 40 38 36 32 30 28 26 26 26 27 27 26 25 27 28 28 25 21 18 17 20 26 28 30 33 33
59 56 54 54 54 54 57 58 58 55 53 54 56 53 50 54 57 58 58 55 52 53 53 51 50 48 49 50 50 51 52 51 49 49 50 49 49 48 48 48 49 50 54 57 57 56 54 52 50 48 47 46 46 48 51 53 52 52 50 47 46 46 47 48 49 50 50 49 47 45 43 41 38 35 31 27 26 27 27 29 30 29 28 28 29 29 28 25 22 20 22 26 29 30 33 34 34
56 54 52 51 52 54 55 55 55 53 50 52 53 49 48 52 55 56 55 53 51 52 50 48 46 44 46 47 49 51 52 52 51 50 50 49 48 47 46 46 47 50 54 57 58 58 56 54 51 50 48 48 47 45 46 48 49 50 50 50 49 49 50 50 51 52 51 50 48 46 43 41 38 35 33 30 29 30 30 32 32 31 30 29 30 30 28 25 25 25 27 29 30 32 36 36 36
53 52 49 49 52 53 53 55 55 51 49 51 50 46 47 52 54 55 54 52 51 51 49 45 42 42 46 48 50 51 51 50 50 50 50 48 47 46 45 45 46 50 53 57 59 60 59 57 54 51 49 49 49 48 46 45 46 46 46 47 48 49 51 52 53 53 52 50 48 46 44 41 39 37 37 36 35 35 35 36 34 32 30 29 30 30 28 27 27 28 29 30 32 36 38 38 37
50 49 47 49 52 51 52 56 53 49 48 50 48 44 48 53 53 54 54 51 49 48 47 43 39 42 46 48 49 50 49 48 48 48 48 47 45 44 43 43 46 50 53 56 59 61 61 59 56 52 49 49 50 50 48 47 46 45 44 44 46 48 50 51 53 52 52 50 48 47 46 44 43 41 41 41 40 40 40 39 36 32 31 30 30 30 30 30 29 30 31 33 36 39 41 39 38
48 47 47 50 51 50 52 55 51 46 48 49 46 44 49 52 52 52 52 49 47 45 44 42 39 43 47 48 49 49 49 48 47 47 46 45 45 43 42 43 45 49 52 54 57 61 62 60 58 54 52 51 51 51 50 49 48 46 45 45 47 49 50 50 50 50 49 48 48 47 47 47 46 45 44 44 43 42 41 39 36 33 32 32 32 32 33 33 33 34 35 37 40 41 41 40 38
46 47 48 49 50 49 51 53 49 46 47 47 45 45 47 50 51 51 49 46 45 43 43 41 41 44 46 47 49 49 48 48 48 47 45 45 45 43 43 43 45 47 50 53 56 60 62 61 60 58 56 54 53 53 52 51 50 49 48 48 49 49 49 49 48 48 48 47 47 47 48 48 47 46 45 44 43 41 39 38 37 36 35 35 35 34 34 35 36 37 38 39 40 40 40 39 38
46 47 47 47 49 49 49 50 47 45 46 45 44 44 46 48 50 48 45 44 43 42 42 42 43 45 45 46 48 48 48 49 49 47 45 45 45 44 44 44 44 47 50 52 55 58 61 62 62 61 59 57 56 55 55 53 51 50 49 48 48 47 46 46 45 45 46 46 47 48 47 47 46 45 44 42 41 39 39 38 38 38 38 37 36 35 34 35 35 36 36 37 38 38 38 38 37
46 46 45 45 47 47 46 47 45 44 43 42 42 43 45 47 48 46 43 42 42 41 42 43 44 45 46 48 49 50 50 50 50 47 44 44 44 44 44 44 44 46 49 51 53 56 59 61 62 62 61 59 57 57 56 54 52 50 49 48 47 46 45 45 44 45 45 46 47 47 46 46 45 43 42 41 39 38 38 37 37 37 37 36 36 35 34 34 34 35 35 35 36 36 37 37 36
46 44 43 44 45 44 44 44 43 42 40 40 41 41 43 45 45 44 41 40 40 41 42 43 44 46 47 49 50 50 50 51 49 45 42 42 44 44 44 44 44 45 48 51 53 55 56 58 60 60 60 59 58 57 56 54 53 51 50 49 48 47 47 47 47 48 48 48 47 47 46 45 43 41 40 39 38 37 36 36 35 35 35 36 36 36 36 35 35 34 34 34 34 35 35 36 35
44 42 41 42 43 43 42 41 41 39 38 38 39 38 40 41 41 40 39 37 37 40 42 43 43 44 46 47 48 48 48 48 46 42 41 42 44 45 45 45 45 45 47 50 52 54 55 57 58 58 58 57 57 56 55 54 53 52 51 49 48 47 47 48 48 49 48 47 46 45 43 42 40 39 40 39 38 37 36 35 34 34 35 36 37 37 36 35 34 33 33 32 32 32 33 34 34
41 40 40 41 41 41 40 39 39 37 35 38 38 35 36 37 36 37 37 36 36 39 41 42 42 41 42 43 44 45 45 44 43 41 42 44 45 47 46 45 45 45 46 48 51 52 54 55 56 57 56 55 54 54 53 53 53 53 53 50 47 46 45 45 46 45 45 44 43 42 40 40 39 39 39 39 38 36 35 35 35 35 36 36 36 36 35 34 33 32 32 31 30 30 31 33 34
39 39 39 40 39 38 38 38 38 35 36 38 37 34 34 34 34 36 37 36 35 36 37 38 38 38 39 40 41 43 43 42 41 42 44 46 47 48 47 46 45 44 45 46 49 51 52 53 54 55 54 53 52 52 52 53 54 55 55 53 50 49 48 48 47 47 46 45 44 43 43 42 42 42 41 41 40 39 39 39 39 38 37 37 36 35 35 34 33 33 31 30 29 28 29 32 34
38 38 38 37 36 36 36 37 37 35 36 37 34 33 33 33 35 37 37 36 34 33 33 34 35 37 38 39 40 41 41 41 42 44 46 47 48 48 47 46 45 44 44 45 47 49 50 51 52 53 52 52 52 53 54 55 56 57 57 57 55 54 54 53 52 51 51 50 49 48 47 47 47 47 47 46 45 44 44 43 43 42 40 39 37 36 35 34 33 32 31 29 28 28 29 32 34
35 36 35 35 35 35 35 36 36 36 36 36 33 31 32 33 35 36 35 34 32 32 32 32 33 34 34 34 36 38 39 41 43 45 46 47 47 48 47 46 45 45 45 45 45 47 48 49 51 52 52 52 52 53 55 57 57 58 58 59 58 57 56 55 54 54 53 53 52 52 51 50 50 50 49 49 48 46 45 44 43 42 40 39 37 36 35 33 32 31 30 29 28 28 29 32 35
33 33 34 35 35 35 34 35 35 35 36 35 32 30 32 34 35 33 32 31 30 30 30 29 28 26 23 23 27 32 37 41 43 44 46 47 48 48 47 46 46 46 45 45 44 45 47 48 49 50 51 51 52 52 54 56 57 57 58 58 58 57 56 55 54 54 53 53 53 53 52 51 50 49 49 48 47 46 44 42 41 39 38 37 36 35 34 33 32 31 30 29 28 28 30 32 35
32 32 34 35 34 33 33 34 34 34 35 33 30 31 33 34 32 29 29 30 28 26 25 24 23 20 17 16 20 26 34 40 43 46 47 48 48 47 46 46 46 46 45 44 44 44 45 46 47 48 49 50 51 52 53 54 55 55 56 56 56 56 55 54 54 53 53 53 53 52 51 50 48 47 46 45 44 43 41 40 39 38 36 35 35 34 34 33 32 32 31 30 30 30 31 33 35
32 32 33 33 32 31 32 32 32 32 32 30 29 32 34 32 29 28 29 28 25 22 19 18 20 21 23 22 21 26 34 40 44 47 48 48 47 46 46 46 46 45 45 44 43 43 44 45 46 46 48 49 50 50 51 52 53 53 53 54 53 53 52 51 51 50 51 51 50 49 47 45 43 42 42 41 41 41 40 39 38 37 35 34 34 34 34 34 33 33 32 32 32 32 33 35 37
33 32 31 31 30 30 31 30 30 30 30 28 28 30 31 30 29 28 28 26 23 20 18 16 20 25 30 29 26 30 37 40 42 45 46 46 45 45 45 45 44 44 44 43 43 44 44 44 45 45 46 47 48 50 50 51 50 50 50 50 49 48 48 47 47 46 47 47 47 47 45 43 41 40 40 40 40 40 39 38 37 35 34 33 33 33 34 34 34 34 34 34 35 36 37 38 40
33 31 29 30 29 29 29 29 29 30 30 29 29 29 29 29 29 29 28 26 23 23 23 21 23 29 35 35 33 35 39 40 40 41 42 44 43 44 44 43 42 42 42 43 43 43 43 42 42 42 42 42 43 45 47 48 48 48 48 47 46 45 45 45 45 45 46 47 47 47 46 44 42 41 41 40 39 38 37 36 35 34 33 33 33 34 34 35 35 35 36 37 38 39 40 41 42
32 30 29 30 29 28 29 29 30 30 30 30 29 28 29 29 30 30 29 28 27 26 27 27 28 32 37 36 34 34 38 41 40 36 37 41 42 43 43 42 41 42 41 42 42 40 39 37 35 35 35 33 32 34 37 41 43 45 47 47 45 45 45 46 46 46 45 45 45 46 45 44 42 41 39 38 36 36 36 36 36 36 35 35 35 35 35 36 37 37 38 39 40 41 42 43 43
33 32 30 29 28 28 29 29 30 30 30 29 28 29 30 30 30 30 31 31 30 27 26 27 28 31 35 34 32 34 40 44 43 39 37 39 41 42 42 41 40 40 40 39 36 34 32 28 27 30 30 31 32 32 33 36 38 41 44 45 45 45 44 43 41 38 35 33 34 36 37 37 37 37 37 37 36 37 37 37 36 36 36 36 36 37 37 38 39 41 42 43 44 45 46 46 46
Wind_Direction
259 259 259 259 259 259 258 257 257 257 258 258 259 260 261 262 263 264 265 266 267 268 268 268 269 271 271 272 273 274 275 276 276 276 277 278 279 281 282 283 284 285 285 286 286 286 286 287 288 289 290 292 293 293 294 294 294 295 296 296 297 296 297 297 298 299 299 300 300 301 301 302 302 303 303 303 304 304 304 304 305 305 305 306 307 308 309 309 310 310 311 311 311 311 312 310 309
260 260 261 261 261 261 260 260 259 259 259 258 259 260 261 261 262 263 264 265 266 266 266 267 269 270 271 272 273 274 274 274 274 274 275 277 278 280 281 282 283 284 285 286 286 285 285 286 287 289 290 291 292 292 293 293 294 294 295 296 296 296 296 297 298 298 299 299 300 300 301 301 302 303 303 303 304 304 304 304 304 305 305 306 307 308 309 309 310 310 310 310 310 311 311 310 310
260 261 261 261 261 261 261 261 260 259 258 258 259 260 261 261 262 262 263 264 265 265 265 267 268 269 271 272 274 274 274 274 273 273 274 276 278 279 280 281 283 285 286 285 284 284 284 285 286 288 289 290 291 291 291 292 293 294 294 295 295 295 296 296 297 298 298 299 299 299 300 302 302 302 303 303 303 304 304 304 304 305 306 307 308 309 310 309 309 309 309 310 311 311 311 311 311
260 260 261 261 261 261 261 260 260 258 257 257 259 259 260 261 261 262 264 265 265 265 266 267 268 269 271 272 274 274 274 274 274 274 275 277 278 278 280 281 283 284 283 283 282 282 283 284 286 287 288 289 289 290 291 291 292 293 293 294 294 295 295 296 296 297 297 298 298 299 300 301 301 302 302 303 303 303 303 304 305 306 307 308 309 310 310 309 309 309 309 311 312 312 312 312 312
259 260 260 260 261 261 261 260 259 257 256 257 258 259 259 260 261 263 264 265 266 266 267 268 268 269 270 271 273 273 273 273 274 276 276 277 277 278 279 281 281 281 280 280 281 281 282 284 285 286 287 288 288 289 290 291 292 292 293 293 294 294 295 295 295 296 296 297 298 299 300 300 301 302 302 303 303 303 304 305 306 307 307 308 309 309 309 309 309 309 310 312 313 313 313 312 312
259 259 259 260 260 260 260 259 258 256 256 257 258 259 259 260 261 263 264 264 265 266 267 267 267 268 269 270 271 271 272 273 274 275 276 276 277 278 279 279 279 278 279 279 280 281 282 283 285 286 287 287 288 289 290 291 291 292 293 293 294 294 294 294 294 295 296 297 298 299 300 300 301 302 302 303 303 303 304 305 306 307 308 309 309 309 309 309 310 310 311 312 313 313 313 313 312
259 259 259 259 259 260 259 259 257 256 257 258 258 259 260 261 262 263 264 264 265 265 266 266 267 268 268 269 270 271 272 273 274 274 275 275 276 277 277 277 277 278 279 280 281 281 282 283 285 286 287 287 288 289 290 290 291 291 292 292 292 293 293 293 294 295 296 297 298 299 300 300 301 302 302 303 303 303 304 305 306 307 308 308 308 309 309 309 310 311 312 313 314 314 314 313 312
258 259 259 260 260 260 259 258 257 256 257 259 259 260 261 262 263 263 264 264 264 265 265 266 267 267 268 269 270 272 273 273 274 274 274 275 276 276 276 276 277 278 279 280 281 281 282 283 284 285 286 287 288 288 289 289 289 290 290 291 291 292 292 293 294 295 296 297 298 299 300 300 301 301 302 303 303 303 304 305 306 307 307 307 308 308 309 310 310 311 313 314 315 316 315 314 311
258 258 259 259 260 260 259 258 257 258 259 260 261 261 262 262 263 263 264 264 264 264 265 266 267 268 269 271 271 273 273 273 273 273 274 275 275 275 275 276 277 278 279 280 280 281 282 283 284 285 286 286 287 287 287 288 288 289 290 290 291 292 293 294 295 296 297 298 299 299 300 300 301 301 302 302 303 303 304 305 306 307 307 307 308 309 310 310 311 313 314 316 316 317 316 313 308
257 257 258 258 258 259 258 258 259 260 260 261 261 261 261 262 262 263 264 264 264 265 266 267 268 269 271 272 272 273 273 272 272 273 274 274 274 275 276 276 277 278 278 279 280 281 282 283 284 284 285 285 286 286 287 288 288 289 289 290 291 292 293 294 295 296 297 298 299 299 300 300 300 301 301 302 303 303 304 305 306 307 307 307 308 309 310 311 313 315 316 317 318 319 316 309 303
257 257 257 257 258 258 258 258 259 259 260 260 260 261 261 262 263 264 264 265 265 266 266 267 268 269 270 271 272 271 271 271 271 272 273 274 275 275 276 277 277 278 278 279 280 281 281 283 283 284 285 285 286 286 287 287 288 288 289 291 292 293 294 295 296 297 298 298 299 299 299 300 300 301 302 302 303 304 305 306 306 307 307 307 308 309 311 314 316 318 317 318 319 318 312 304 300
257 257 257 257 257 258 258 258 258 258 258 259 260 261 262 263 264 264 265 266 266 267 267 267 268 269 270 270 270 269 269 269 270 272 272 274 275 276 276 277 277 278 278 279 280 281 282 283 283 284 284 285 286 286 287 287 288 289 290 292 292 293 294 295 296 297 298 298 299 299 299 300 300 301 302 303 303 304 305 306 306 307 307 307 309 310 313 316 318 319 318 319 319 315 308 303 301
259 258 258 258 258 258 258 258 257 257 258 258 259 260 261 262 263 264 265 266 266 266 267 268 269 269 269 269 269 268 269 269 270 271 271 273 274 275 276 276 277 277 278 279 280 281 282 282 283 283 284 285 286 287 287 287 288 289 291 292 293 294 295 296 297 297 298 298 298 298 299 300 301 303 303 304 305 305 305 305 306 306 307 308 310 312 314 316 318 318 318 318 316 311 306 303 301
261 261 261 260 260 259 259 258 258 258 258 259 259 260 260 261 262 263 264 264 265 266 267 268 268 268 268 267 267 268 269 269 269 269 271 272 273 274 275 275 276 277 278 280 280 281 281 282 282 283 284 285 286 286 286 287 288 290 291 292 293 295 296 296 297 297 297 297 297 298 299 301 303 304 305 305 305 305 305 305 305 306 306 308 311 314 314 315 316 318 317 316 313 307 303 303 301
262 262 262 262 262 261 260 259 259 259 259 260 260 260 260 261 261 262 263 263 264 265 266 266 266 266 266 266 266 267 267 268 268 269 270 271 272 273 274 274 276 277 278 279 279 280 280 281 282 283 284 285 285 285 286 287 288 290 292 293 294 295 296 296 296 296 296 296 298 300 302 304 304 305 305 305 305 305 305 304 304 305 305 308 312 314 314 313 314 316 316 313 309 303 303 303 299
263 263 263 263 262 261 260 260 260 260 260 261 261 261 261 261 262 263 263 264 264 264 265 265 265 265 265 264 264 265 265 266 267 268 270 270 271 271 272 273 274 276 276 277 278 279 280 280 281 282 284 284 284 285 286 288 290 292 293 294 295 295 294 294 295 295 296 298 301 303 305 305 305 305 306 306 306 306 306 305 303 303 304 307 312 314 312 312 312 314 313 309 305 302 304 303 297
264 264 263 263 262 261 260 260 260 261 261 262 262 262 262 263 264 264 265 265 264 264 264 264 264 264 263 263 263 264 264 265 266 268 269 270 270 270 271 272 273 274 275 276 277 278 279 280 281 282 283 284 284 285 287 289 291 292 293 294 294 293 293 294 294 295 297 300 303 305 305 306 306 306 306 307 306 307 307 304 302 301 303 308 312 312 310 310 310 311 309 305 302 302 304 301 294
265 264 263 263 262 260 260 261 261 261 261 262 262 263 263 264 264 265 265 265 265 265 264 264 264 263 262 262 262 263 264 265 266 267 269 269 269 269 270 271 272 273 274 275 276 277 278 280 281 282 283 284 285 286 288 290 291 292 293 294 292 291 293 294 296 297 299 301 304 305 305 305 305 306 305 305 305 306 306 304 302 301 304 308 310 310 309 309 309 307 305 303 301 302 304 299 291
264 263 263 262 261 260 261 261 261 261 261 262 262 263 263 264 264 265 265 265 266 265 264 263 262 262 262 262 262 262 264 265 266 267 268 268 268 269 270 271 272 272 273 274 276 277 279 280 281 282 283 284 285 286 288 290 291 292 291 291 290 291 294 296 298 299 300 302 304 305 305 305 305 304 304 303 304 304 305 304 302 302 305 308 308 308 309 309 308 306 303 302 303 303 303 296 290
263 263 263 261 260 261 262 262 261 261 261 262 262 262 263 263 264 264 264 265 265 265 264 263 262 262 262 262 262 263 264 265 266 266 267 267 268 269 270 271 272 273 274 275 276 278 279 280 281 282 282 283 285 287 288 289 290 289 287 287 288 292 296 297 298 299 300 302 304 305 305 306 306 304 304 303 304 305 305 305 304 305 306 307 307 308 309 308 307 306 304 304 306 306 303 295 291
263 262 261 260 261 261 261 261 261 261 261 262 262 261 261 262 262 262 263 263 263 263 262 262 262 262 262 263 264 264 264 265 265 266 266 267 268 269 271 273 274 274 276 277 278 278 279 279 280 281 282 284 285 286 287 288 287 286 285 286 288 292 294 295 297 298 301 304 304 305 306 307 306 305 304 305 306 307 308 309 309 309 308 308 309 310 308 307 307 307 307 308 309 306 301 294 292
262 261 260 260 260 260 260 260 261 261 261 261 261 261 261 260 261 261 262 262 262 261 261 261 261 262 262 264 265 264 264 264 265 266 267 267 269 271 274 275 276 277 278 278 279 278 278 279 280 281 282 283 284 285 285 285 284 285 285 286 288 290 292 293 295 298 301 303 304 305 306 306 305 305 305 306 307 309 311 312 312 311 311 311 312 310 308 307 307 309 311 313 311 306 303 298 295
260 259 258 259 259 259 260 260 260 260 260 261 261 261 260 260 260 260 260 260 260 260 259 259 260 261 263 264 263 263 263 264 265 265 266 268 270 274 277 279 280 280 280 278 278 277 277 278 279 280 281 282 282 283 284 284 284 284 283 284 288 290 291 292 294 298 301 301 302 304 305 305 305 305 307 308 309 311 312 313 313 313 313 314 313 310 307 307 308 312 316 317 313 312 309 303 298
258 257 257 258 259 259 259 259 259 260 260 260 261 261 261 260 259 259 259 258 258 258 258 258 259 261 262 262 261 262 262 263 264 265 266 269 273 280 284 284 285 283 280 278 277 276 277 277 278 278 280 280 281 283 284 285 284 281 281 284 288 289 289 290 293 297 298 298 300 301 302 303 305 306 309 312 313 314 315 315 315 316 316 315 313 310 307 308 311 316 320 320 319 317 310 301 296
256 255 256 257 258 259 259 259 259 259 260 260 260 261 260 259 258 258 258 258 258 258 258 258 259 260 261 261 261 261 261 262 263 265 267 270 277 283 283 283 285 283 280 278 277 277 277 276 276 278 280 281 283 285 283 281 279 277 280 283 285 286 286 288 292 294 295 297 298 298 299 301 303 306 309 312 314 317 318 318 319 319 320 318 314 309 308 311 315 320 323 325 322 314 304 297 293
256 256 256 258 259 259 259 259 258 258 258 259 259 260 259 258 257 256 256 257 257 257 257 258 259 260 260 261 261 261 261 262 263 265 268 271 275 273 272 274 274 273 276 277 277 276 275 276 278 280 281 281 283 282 275 273 273 273 279 283 284 286 286 288 291 293 295 296 296 296 298 300 302 306 309 312 314 317 319 320 322 322 322 321 316 311 312 315 319 322 325 324 316 305 298 293 291
256 256 257 258 259 259 259 258 258 257 257 258 258 258 258 257 256 255 255 255 255 255 256 257 258 258 259 259 260 261 261 262 264 266 269 273 273 262 263 267 263 264 270 274 276 276 276 277 277 277 277 277 279 275 269 267 267 271 280 284 285 285 286 288 290 293 295 294 293 295 297 298 301 306 309 311 311 313 317 320 321 321 321 320 316 314 316 317 318 320 320 315 306 297 294 293 295
256 256 257 258 258 259 260 259 258 257 257 257 256 257 257 257 256 256 254 254 254 255 257 257 257 257 258 258 260 260 261 263 264 267 270 273 270 258 254 254 253 259 266 272 275 276 275 274 272 271 270 270 270 266 265 266 266 273 282 283 284 286 288 290 291 294 295 293 291 293 295 297 301 306 308 309 308 310 314 318 319 320 319 317 315 317 317 315 315 315 314 309 301 295 296 299 302
256 256 257 258 259 260 260 259 258 257 256 256 255 256 257 257 256 255 254 254 255 257 258 257 258 258 258 258 259 261 262 263 263 262 261 256 249 243 243 244 248 258 266 271 273 272 270 268 267 264 263 264 262 253 253 260 263 272 279 279 282 286 288 289 290 293 295 293 290 292 294 297 302 304 305 306 307 310 313 318 320 320 318 315 314 317 316 313 312 312 311 308 302 298 301 306 308
257 257 257 258 259 260 260 258 257 257 256 256 255 256 257 257 256 255 255 255 256 257 257 257 258 258 258 259 260 261 262 262 260 257 252 245 239 238 242 248 253 258 263 267 267 265 262 261 261 259 260 261 254 243 241 251 261 268 272 273 279 285 285 286 289 292 292 290 291 294 295 298 301 302 304 306 309 313 316 320 320 319 319 317 316 316 313 310 309 309 310 308 305 303 306 310 313
258 257 258 259 259 259 259 258 258 258 257 256 255 255 256 256 256 256 255 256 256 257 257 257 257 257 258 259 260 260 260 260 259 257 253 250 248 248 250 253 256 254 251 246 251 259 258 255 256 256 256 251 243 241 243 254 264 266 266 270 277 283 284 287 289 289 286 287 294 298 298 299 299 300 302 305 311 316 319 320 318 320 325 323 319 316 311 308 306 308 309 309 308 309 311 315 324
260 259 258 258 258 259 259 259 258 258 257 256 255 255 255 255 256 256 255 255 256 256 256 256 256 256 257 258 258 259 259 258 257 256 255 253 252 253 253 255 255 252 247 239 239 250 256 253 251 250 247 241 240 246 251 259 263 262 266 272 278 280 282 285 286 284 283 287 295 299 299 298 297 297 299 305 313 317 318 316 318 324 330 328 323 318 312 307 305 306 307 309 311 313 318 327 342
260 259 259 259 259 260 261 260 259 258 257 257 256 255 255 255 256 256 256 255 255 255 255 254 254 255 255 256 257 257 257 256 256 256 255 255 254 254 254 253 252 249 246 243 241 244 250 251 246 243 242 241 243 248 253 257 260 263 270 274 276 278 281 282 281 279 280 285 292 296 296 296 297 298 300 306 312 314 313 312 317 325 329 329 324 318 313 308 306 306 306 309 313 319 330 340 351
261 261 261 261 262 262 263 262 260 259 259 259 258 257 257 257 257 257 256 254 253 253 253 253 252 253 254 254 254 254 255 255 255 256 255 255 255 254 253 249 247 245 241 240 241 242 246 249 243 238 240 244 246 249 252 255 260 265 270 272 273 276 279 280 279 277 278 284 289 291 292 295 298 300 302 306 309 309 308 309 316 324 328 329 324 319 314 310 307 306 307 309 317 332 340 346 352
265 264 264 264 263 263 263 262 261 260 260 260 259 256 256 256 256 256 255 253 252 252 252 252 252 252 253 252 252 252 253 254 254 254 254 254 253 251 249 246 243 241 239 238 239 241 244 247 244 239 240 244 246 248 251 254 258 263 268 271 272 274 276 278 279 276 278 285 288 288 291 294 298 301 303 305 306 305 304 309 316 324 329 328 325 322 316 310 307 306 305 309 326 338 341 345 350
267 266 265 264 262 261 261 260 260 258 258 257 255 252 250 251 253 253 252 250 250 251 251 252 252 252 251 251 250 251 251 252 251 251 250 250 250 249 247 245 242 238 238 238 238 239 241 243 244 243 243 245 246 247 250 253 257 262 266 268 270 273 275 276 276 276 279 285 287 288 292 295 298 301 302 303 303 302 305 311 319 323 326 327 327 325 319 312 308 305 302 309 325 331 335 340 345
268 267 265 263 261 259 258 258 258 256 255 254 253 250 247 248 250 251 250 248 247 249 251 252 251 250 249 248 247 248 248 249 248 248 247 247 247 247 245 244 242 238 236 237 237 238 239 240 242 243 243 245 247 248 250 253 257 260 263 266 269 273 274 274 276 278 281 284 286 288 291 294 297 299 300 300 299 300 304 310 315 315 316 318 320 324 322 314 307 302 299 307 317 322 327 333 339
268 266 264 261 259 256 254 255 256 255 253 252 251 248 246 247 249 250 249 247 244 246 248 249 249 248 247 246 246 245 245 245 244 244 245 245 245 244 243 242 240 236 234 234 235 237 238 238 239 241 242 244 248 250 252 254 257 260 261 264 268 271 273 274 276 279 281 283 284 285 288 291 293 294 294 292 292 294 298 304 307 306 306 309 313 319 320 313 305 301 300 304 310 315 321 326 331
266 264 262 258 255 253 253 253 253 252 250 250 249 247 246 246 248 249 248 246 242 242 243 244 245 246 245 244 243 242 242 242 241 241 242 243 243 242 242 241 239 236 233 232 233 235 236 237 238 239 240 243 248 252 254 256 259 261 262 264 267 271 272 273 275 277 279 280 281 282 284 286 286 287 288 286 287 290 294 299 301 300 302 305 310 314 315 310 304 300 299 302 307 312 317 320 324
263 261 258 254 252 251 251 251 250 250 249 249 248 246 246 246 246 247 246 244 242 241 242 242 243 245 244 242 241 242 243 244 243 243 243 243 242 241 240 239 237 235 233 232 232 234 235 236 237 239 240 241 245 250 254 256 259 263 265 267 269 271 272 273 274 276 277 278 278 279 281 281 281 282 283 284 285 287 292 296 298 298 298 301 305 309 309 306 303 300 299 301 304 309 312 316 318
260 257 254 251 250 250 250 251 250 249 248 248 247 245 245 245 245 246 246 245 243 242 242 240 240 243 244 243 243 242 242 242 243 243 243 243 242 241 239 237 236 235 234 233 233 233 235 236 236 237 239 241 244 247 251 254 258 262 266 268 270 271 273 273 274 275 276 275 276 277 277 277 277 278 280 282 284 286 290 293 295 295 295 296 299 302 302 301 300 299 298 299 301 305 308 311 313
256 254 251 249 250 249 250 252 251 248 248 248 247 244 244 245 245 245 245 245 244 242 242 238 235 238 241 241 242 242 242 241 240 240 241 242 241 239 237 236 235 235 234 234 234 233 234 236 237 238 238 240 243 246 249 253 256 260 264 266 268 270 272 273 274 275 275 275 275 276 276 277 277 279 280 282 283 286 288 291 292 292 292 293 294 296 296 296 296 296 296 297 300 303 306 308 309
253 251 249 249 250 250 250 252 251 249 248 248 246 243 243 245 245 244 244 244 243 241 240 236 232 234 237 239 240 242 242 242 241 240 239 239 239 238 236 234 233 234 235 235 235 234 234 235 238 239 240 241 243 246 249 252 255 259 262 266 269 271 273 275 276 276 276 277 277 277 278 279 279 280 281 283 284 286 287 288 289 291 292 292 293 293 293 293 293 294 295 297 299 301 303 304 304
251 250 249 250 251 251 251 253 253 251 249 248 246 243 242 243 244 243 242 242 241 239 237 234 231 232 233 235 237 239 239 240 240 239 238 238 238 237 236 235 233 233 235 235 235 236 236 237 238 240 242 243 244 246 249 252 254 258 262 266 270 273 275 277 278 279 279 280 280 280 279 280 280 281 282 283 284 284 285 287 289 290 291 292 293 293 293 294 294 295 297 297 298 298 299 300 300
250 249 250 251 252 253 253 254 253 252 250 248 246 244 242 242 243 243 241 240 239 238 236 232 229 229 230 231 233 235 235 237 239 239 239 239 240 239 238 238 236 234 235 236 236 237 237 238 239 240 242 243 245 247 249 251 253 256 261 266 270 273 275 277 279 280 281 282 281 280 279 279 280 280 281 282 283 284 286 287 288 289 290 292 293 294 294 294 295 295 296 296 295 295 296 296 295
250 250 251 252 253 254 254 254 253 251 249 247 245 243 242 242 242 242 240 238 238 236 235 233 230 229 230 232 234 235 236 238 240 241 241 240 241 241 240 238 237 235 235 237 238 238 239 240 241 243 244 244 245 247 248 250 252 255 260 265 269 272 274 276 278 280 281 282 283 282 282 281 280 280 281 281 282 283 285 286 287 289 291 292 291 292 292 293 294 294 294 294 293 293 292 292 291
252 252 252 253 253 253 252 251 250 248 246 245 243 240 240 241 241 241 239 236 235 235 233 232 231 231 232 234 237 239 240 241 243 243 241 240 240 240 240 238 237 235 235 236 238 239 240 241 243 244 246 246 246 247 249 250 252 254 258 265 270 273 275 277 279 280 281 282 283 284 283 281 279 278 278 279 281 283 285 287 288 289 289 288 288 290 291 293 295 296 295 294 293 291 290 288 286
253 253 253 253 253 253 251 250 248 245 243 242 240 236 237 238 238 238 236 233 232 233 234 232 231 232 234 236 238 240 241 242 243 242 240 238 238 239 239 238 238 236 235 236 239 240 241 243 244 246 247 248 248 248 249 251 251 252 255 262 268 272 274 276 277 277 278 278 279 278 277 276 276 276 278 279 281 283 286 287 287 286 286 287 289 291 294 296 297 298 297 296 294 291 287 284 282
252 253 253 253 254 253 251 248 245 241 238 238 236 232 232 233 232 234 233 230 228 230 234 234 232 231 232 235 237 239 240 241 241 240 239 238 238 239 239 239 239 238 237 237 239 241 242 243 246 247 249 250 250 249 249 249 250 251 254 259 264 269 272 273 274 273 273 273 274 273 272 272 273 275 278 279 280 281 284 286 287 288 289 291 292 294 296 297 298 298 298 297 295 291 286 281 279
252 254 255 255 255 253 249 246 242 237 235 236 234 230 229 229 229 231 232 230 226 224 228 230 229 228 231 234 237 239 241 240 239 238 239 239 239 240 240 240 240 240 239 238 240 243 244 245 246 248 250 251 251 250 249 250 251 252 255 258 263 267 270 272 272 273 273 273 272 272 272 272 273 274 276 278 280 281 283 286 289 290 292 293 294 295 297 298 298 298 297 297 294 290 284 279 278
254 256 257 255 252 249 246 244 241 235 233 233 230 227 227 227 228 230 231 231 227 222 223 225 227 231 235 240 244 246 245 242 240 239 239 240 241 241 241 242 242 242 242 241 242 244 246 247 247 248 250 251 251 251 251 252 253 255 256 259 263 267 269 271 272 273 273 273 273 273 273 274 275 276 277 279 281 282 285 288 290 291 292 294 295 296 297 297 298 297 296 294 292 287 281 278 277
255 256 256 253 249 246 243 241 239 235 233 232 227 222 222 224 227 229 230 230 227 223 222 223 226 231 239 253 262 260 255 251 247 243 242 241 241 242 242 243 244 244 244 244 244 245 247 248 249 250 250 251 251 252 252 253 255 257 259 261 264 266 269 270 271 272 272 273 273 274 275 276 278 279 280 281 282 284 286 288 290 292 294 295 296 297 297 298 298 297 294 291 287 282 278 276 275
255 255 254 252 250 248 244 241 237 235 234 234 227 219 219 224 226 226 227 227 225 222 221 221 219 212 209 230 253 259 261 261 254 247 245 243 242 243 243 244 244 245 246 247 247 247 248 250 251 252 253 253 254 254 254 255 257 259 261 263 264 266 268 269 271 272 272 272 273 274 276 278 279 281 282 283 284 285 286 288 290 292 294 295 296 297 297 296 296 296 292 287 282 279 277 275 274
253 252 252 252 251 248 245 241 238 236 234 231 226 221 220 222 221 219 221 221 218 214 212 213 208 189 179 192 219 243 256 261 258 252 248 247 246 245 244 244 245 246 247 248 249 249 250 251 252 254 255 256 258 259 259 260 260 261 262 264 265 266 268 269 271 272 272 273 274 275 276 278 279 280 282 283 284 285 287 288 290 291 292 293 294 294 294 294 294 293 289 284 279 277 276 275 274
251 251 252 252 250 248 245 241 236 234 230 227 224 222 222 219 215 214 216 213 207 197 188 197 203 187 177 184 203 228 244 253 255 252 249 249 248 246 246 246 245 246 247 248 248 249 250 251 253 255 258 260 262 263 264 264 264 265 265 266 267 268 269 270 271 272 274 275 275 275 275 276 276 278 280 282 284 285 287 288 289 289 290 291 291 291 290 290 289 287 285 282 278 276 275 274 274
249 250 251 250 247 245 243 238 232 229 225 220 219 218 218 216 211 209 207 201 191 179 172 185 201 192 184 186 196 215 234 245 250 250 248 247 248 247 246 246 245 245 246 246 247 249 250 253 256 259 263 266 268 268 267 266 266 266 266 267 268 268 269 270 271 273 275 275 275 274 272 272 273 276 278 280 282 283 285 286 286 287 288 288 288 287 287 286 285 284 283 281 279 278 277 276 276
246 246 246 245 244 242 239 234 229 227 223 219 216 213 212 212 209 205 200 189 179 174 173 182 195 196 194 196 202 218 235 243 245 249 250 247 246 246 245 245 245 244 245 245 246 248 250 255 259 264 266 262 260 262 263 263 264 265 264 265 266 267 267 269 271 273 274 274 273 271 269 269 270 272 274 276 277 280 281 283 284 285 286 286 286 285 285 284 284 284 284 283 283 282 282 281 280
244 242 241 240 240 239 237 233 228 223 220 216 212 209 209 208 206 202 196 183 174 175 180 183 193 202 205 208 215 227 236 240 243 250 253 248 245 244 243 242 242 242 243 244 247 251 254 254 254 253 249 240 236 241 250 259 264 265 265 265 265 264 264 265 267 268 269 270 272 270 268 267 268 269 271 275 278 280 282 284 285 285 286 287 287 286 286 286 286 287 287 287 288 288 287 286 284